Date String (YYYY-MM-DD hh:mm:ss) UTC,Instrument flags,Ambient pressure (hPa),Sample flow (lpm),Bypass flow (lpm),Sample temperature (°C),Ambient temperature (°C),ASC tube jacket temperature (°C),LED temperature (°C),Box temperature (°C),Sample RH (%),Span deviation,Mass concentration (μg/m³),Mass concentration (μg/m³),Mass concentration (μg/m³)
DateTimeUTC,F1_M11,P_M11,Q1_M11,Q2_M11,T1_M11,T2_M11,T3_M11,T4_M11,T5_M11,U1_M11,ZSPAN_M11,X0_M11,X2_M11,X1_M11
2021-09-29 20:00:00,,0825.0,4.99,0.00,30.0,26.2,00.0,39.2,31.1,23.1,0001.7,0023.56,0008.02,0006.32
2021-09-29 20:01:00,,0825.1,5.00,0.00,29.8,26.4,00.0,39.1,31.2,23.6,0001.9,0024.80,0008.02,0006.32
2021-09-29 20:02:00,,0825.2,5.01,0.00,29.8,26.9,00.0,39.1,31.3,23.6,0002.0,0026.52,0008.01,0006.33
2021-09-29 20:03:00,,0825.2,4.99,0.00,29.8,27.3,00.0,39.0,31.3,23.5,0002.4,0027.17,0007.98,0006.34
2021-09-29 20:04:00,,0825.3,5.01,0.00,29.8,27.7,00.0,39.0,31.4,23.7,0002.4,0026.85,0007.97,0006.33
2021-09-29 20:05:00,,0825.3,5.01,0.00,29.8,28.0,00.0,39.0,31.5,23.7,0002.4,0027.30,0007.97,0006.32
2021-09-29 20:06:00,,0825.4,4.99,0.00,29.8,28.3,00.0,39.0,31.5,24.1,0002.4,0027.81,0007.96,0006.32
2021-09-29 20:07:00,,0825.4,5.01,0.00,29.8,28.5,00.0,39.0,31.6,23.9,0002.7,0029.45,0007.98,0006.34
2021-09-29 20:08:00,,0825.4,4.98,0.00,29.9,28.6,00.0,39.0,31.6,24.2,0002.9,0028.22,0008.02,0006.36
2021-09-29 20:09:00,,0825.5,5.00,0.00,29.9,28.7,00.0,39.0,31.7,23.6,0002.8,0026.79,0007.99,0006.35
2021-09-29 20:10:00,,0825.5,5.00,0.00,29.9,28.8,00.0,39.0,31.7,24.0,0003.0,0026.79,0007.97,0006.33
2021-09-29 20:11:00,,0825.6,5.00,0.00,29.9,28.9,00.0,39.0,31.7,24.0,0003.1,0024.99,0008.03,0006.36
2021-09-29 20:12:00,,0825.6,5.01,0.00,29.9,28.9,00.0,39.0,31.7,25.5,0003.0,0024.48,0008.04,0006.38
2021-09-29 20:13:00,,0825.6,5.00,0.00,30.0,29.0,00.0,39.0,31.8,26.9,0002.9,0023.40,0008.04,0006.40
2021-09-29 20:14:00,,0825.6,4.99,0.00,30.0,29.0,00.0,39.0,31.8,26.9,0002.8,0023.42,0008.03,0006.42
2021-09-29 20:15:00,,0825.7,5.01,0.00,30.0,29.1,00.0,39.0,31.7,27.0,0002.6,0022.99,0008.07,0006.46
2021-09-29 20:16:00,,0825.8,5.00,0.00,30.0,29.1,00.0,39.0,31.8,27.6,0002.5,0022.00,0008.15,0006.52
2021-09-29 20:17:00,,0825.9,5.00,0.00,30.0,29.1,00.0,39.1,31.8,27.8,0002.2,0020.61,0008.18,0006.57
2021-09-29 20:18:00,,0825.9,4.99,0.00,30.0,29.1,00.0,39.1,31.8,27.5,0001.8,0018.28,0008.22,0006.63
2021-09-29 20:19:00,,0826.0,5.00,0.00,30.0,29.1,00.0,39.1,31.8,27.5,0001.9,0018.20,0008.29,0006.69
2021-09-29 20:20:00,,0826.1,5.00,0.00,30.1,29.2,00.0,39.1,31.8,27.2,0001.8,0018.10,0008.33,0006.77
2021-09-29 20:21:00,,0826.2,4.99,0.00,30.1,29.1,00.0,39.1,31.8,27.1,0001.8,0017.47,0008.34,0006.82
2021-09-29 20:22:00,,0826.1,5.01,0.00,30.0,27.6,00.0,39.1,31.4,27.1,0001.7,0016.80,0008.31,0006.86
2021-09-29 20:23:00,,0826.2,4.99,0.00,29.8,26.1,00.0,39.1,31.0,27.7,0001.7,0016.32,0008.34,0006.90
2021-09-29 20:24:00,,0826.3,5.01,0.00,29.7,26.0,00.0,39.0,31.0,28.1,0001.7,0015.81,0008.39,0006.95
2021-09-29 20:25:00,,0826.3,4.99,0.00,29.6,26.4,00.0,38.9,31.0,28.2,0001.8,0014.86,0008.44,0006.99
2021-09-29 20:26:00,,0826.4,5.01,0.00,29.6,26.8,00.0,38.9,31.1,28.4,0001.8,0015.00,0008.51,0007.03
2021-09-29 20:27:00,,0826.4,5.00,0.00,29.6,27.2,00.0,38.9,31.2,28.6,0001.9,0014.99,0008.55,0007.03
2021-09-29 20:28:00,,0826.4,5.01,0.00,29.6,27.6,00.0,38.8,31.2,28.6,0002.0,0015.27,0008.57,0007.02
2021-09-29 20:29:00,,0826.3,5.02,0.00,29.6,27.8,00.0,38.8,31.3,28.0,0002.1,0015.03,0008.43,0006.92
2021-09-29 20:30:00,,0826.4,5.00,0.00,29.6,28.0,00.0,38.8,31.4,27.3,0001.8,0014.88,0008.22,0006.75
2021-09-29 20:31:00,,0826.3,5.00,0.00,29.6,28.2,00.0,38.8,31.4,27.0,0002.0,0014.99,0008.08,0006.61
2021-09-29 20:32:00,,0826.2,4.99,0.00,29.6,28.3,00.0,38.8,31.4,27.0,0002.0,0014.70,0007.91,0006.48
2021-09-29 20:33:00,,0826.2,5.01,0.00,29.7,28.5,00.0,38.8,31.4,27.2,0002.0,0014.59,0007.78,0006.36
2021-09-29 20:34:00,,0826.2,4.99,0.00,29.7,28.6,00.0,38.8,31.5,27.2,0002.1,0014.23,0007.68,0006.25
2021-09-29 20:35:00,,0826.2,4.99,0.00,29.7,28.7,00.0,38.8,31.5,27.1,0002.2,0013.61,0007.53,0006.15
2021-09-29 20:36:00,,0826.1,4.99,0.00,29.8,28.8,00.0,38.8,31.6,27.1,0001.9,0013.23,0007.38,0006.06
2021-09-29 20:37:00,,0826.1,5.02,0.00,29.8,28.8,00.0,38.8,31.6,27.2,0002.0,0012.88,0007.21,0005.97
2021-09-29 20:38:00,,0826.0,5.00,0.00,29.8,28.9,00.0,38.8,31.6,26.8,0002.0,0012.65,0007.09,0005.92
2021-09-29 20:39:00,,0826.0,5.00,0.00,29.8,28.9,00.0,38.9,31.7,26.3,0001.9,0012.07,0006.94,0005.87
2021-09-29 20:40:00,,0825.8,4.99,0.00,29.9,29.0,00.0,38.9,31.7,25.9,0002.0,0012.04,0006.94,0005.87
2021-09-29 20:41:00,,0826.0,5.01,0.00,29.9,29.0,00.0,38.9,31.7,25.5,0002.3,0012.50,0007.08,0005.94
2021-09-29 20:42:00,,0825.9,4.99,0.00,29.9,29.0,00.0,38.9,31.8,25.5,0002.4,0012.30,0007.17,0006.01
2021-09-29 20:43:00,,0825.7,4.99,0.00,29.9,29.0,00.0,38.9,31.8,25.6,0002.3,0012.52,0007.23,0006.06
2021-09-29 20:44:00,,0825.5,5.02,0.00,29.9,29.0,00.0,39.0,31.8,25.4,0002.2,0012.82,0007.34,0006.11
2021-09-29 20:45:00,,0825.6,5.00,0.00,29.9,29.1,00.0,39.0,31.7,25.4,0002.0,0013.07,0007.40,0006.17
2021-09-29 20:46:00,,0825.5,4.99,0.00,30.0,29.1,00.0,39.0,31.8,25.7,0001.6,0013.39,0007.50,0006.21
2021-09-29 20:47:00,,0825.5,5.01,0.00,30.0,29.1,00.0,39.0,31.7,26.0,0001.5,0013.86,0007.55,0006.24
2021-09-29 20:48:00,,0825.4,4.99,0.00,30.0,29.1,00.0,39.0,31.8,26.0,0001.8,0014.34,0007.58,0006.27
2021-09-29 20:49:00,,0825.3,5.00,0.00,30.0,29.1,00.0,39.0,31.8,25.9,0001.8,0014.25,0007.54,0006.25
2021-09-29 20:50:00,,0825.3,5.01,0.00,30.0,29.1,00.0,39.0,31.7,26.1,0002.0,0014.42,0007.56,0006.24
2021-09-29 20:51:00,,0825.3,4.99,0.00,30.0,29.1,00.0,39.0,31.7,26.4,0001.8,0014.39,0007.57,0006.25
2021-09-29 20:52:00,,0825.3,5.00,0.00,30.0,29.1,00.0,39.1,31.8,26.8,0002.0,0014.12,0007.58,0006.28
2021-09-29 20:53:00,,0825.3,5.01,0.00,30.0,29.1,00.0,39.1,31.7,27.7,0002.1,0014.10,0007.61,0006.30
2021-09-29 20:54:00,,0825.3,4.99,0.00,30.0,29.1,00.0,39.1,31.7,27.4,0002.4,0014.64,0007.67,0006.33
2021-09-29 20:55:00,,0825.3,5.00,0.00,30.0,29.2,00.0,39.1,31.8,27.4,0002.5,0014.67,0007.71,0006.37
2021-09-29 20:56:00,,0825.4,4.99,0.00,30.0,29.2,00.0,39.1,31.7,27.1,0002.7,0014.47,0007.69,0006.38
2021-09-29 20:57:00,,0825.5,5.00,0.00,30.0,29.2,00.0,39.1,31.8,27.0,0002.8,0014.71,0007.67,0006.37
2021-09-29 20:58:00,,0825.7,5.00,0.00,30.0,29.3,00.0,39.1,31.8,26.9,0002.8,0014.38,0007.71,0006.35
2021-09-29 20:59:00,,0825.9,5.00,0.00,30.1,29.3,00.0,39.1,31.9,26.9,0002.3,0014.19,0007.73,0006.35
